FW9423 Weather Reports


Display with metric or nautical units.
time (UTC)temp
F
wind
direction
speed
MPH
gust
MPH
rain 1hr
in
rain 24hr
in
rain mn
in
humidity
%
barometer
mb
20260904054040 83 256 9.0 19.0 0.00 0.00 0.00 30 1012.8
20260904053541 83 263 9.0 20.0 0.00 0.00 0.00 29 1013.0
20260904053104 83 232 10.0 20.0 0.00 0.00 0.00 30 1012.8
20260904052543 82 237 11.0 20.0 0.00 0.00 0.00 30 1012.9
20260904052040 82 248 12.0 19.0 0.00 0.00 0.00 30 1012.9
20260904051601 82 261 8.0 19.0 0.00 0.00 0.00 30 1012.9
20260904051042 82 264 11.0 20.0 0.00 0.00 0.00 30 1013.0
20260904050539 82 238 10.0 21.0 0.00 0.00 0.00 30 1012.9
20260904050100 83 242 10.0 21.0 0.00 0.00 0.00 29 1012.9
20260904045543 82 280 6.0 18.0 0.00 0.00 0.00 30 1012.8
20260904045042 82 258 11.0 18.0 0.00 0.00 0.00 30 1012.8
20260904044557 82 247 8.0 16.0 0.00 0.00 0.00 30 1012.8
20260904044040 82 225 7.0 14.0 0.00 0.00 0.00 30 1012.7
20260904043540 83 248 8.0 17.0 0.00 0.00 0.00 30 1012.8
20260904043054 82 259 11.0 17.0 0.00 0.00 0.00 30 1012.7
20260904042541 83 247 11.0 21.0 0.00 0.00 0.00 30 1012.8
20260904042040 83 254 9.0 21.0 0.00 0.00 0.00 30 1012.9
20260904041607 83 252 11.0 21.0 0.00 0.00 0.00 29 1013.1
20260904041040 83 254 8.0 15.0 0.00 0.00 0.00 30 1013.1
20260904040540 82 238 8.0 20.0 0.00 0.00 0.00 31 1013.1
20260904040103 82 271 13.0 20.0 0.00 0.00 0.00 31 1013.2
20260904035543 82 248 8.0 19.0 0.00 0.00 0.00 30 1013.3
20260904035045 82 234 9.0 19.0 0.00 0.00 0.00 31 1013.3
20260904034604 82 241 11.0 17.0 0.00 0.00 0.00 31 1013.4
20260904034041 83 260 8.0 17.0 0.00 0.00 0.00 31 1013.5
20260904033545 82 245 9.0 16.0 0.00 0.00 0.00 32 1013.4
20260904033102 82 241 12.0 16.0 0.00 0.00 0.00 31 1013.6
20260904032545 83 238 7.0 18.0 0.00 0.00 0.00 31 1013.5
20260904032041 82 229 8.0 18.0 0.00 0.00 0.00 31 1013.5
20260904031606 82 246 12.0 23.0 0.00 0.00 0.00 31 1013.7
20260904031042 82 243 12.0 23.0 0.00 0.00 0.00 31 1013.6
20260904030541 82 250 7.0 16.0 0.00 0.00 0.00 31 1013.7
20260904030059 82 248 5.0 18.0 0.00 0.00 0.00 31 1013.7
20260904025539 82 229 8.0 19.0 0.00 0.00 0.00 31 1013.7
20260904025043 82 261 8.0 19.0 0.00 0.00 0.00 30 1013.7
20260904024602 82 228 6.0 17.0 0.00 0.00 0.00 30 1013.8
20260904024041 82 251 8.0 17.0 0.00 0.00 0.00 31 1013.8
20260904023539 82 184 7.0 15.0 0.00 0.00 0.00 31 1014.0
20260904023107 82 245 7.0 15.0 0.00 0.00 0.00 32 1013.9
20260904022544 82 257 8.0 15.0 0.00 0.00 0.00 32 1014.1
20260904022042 82 212 5.0 14.0 0.00 0.00 0.00 32 1014.0
20260904021605 81 288 9.0 15.0 0.00 0.00 0.00 32 1014.1
20260904021041 81 259 8.0 15.0 0.00 0.00 0.00 32 1014.2
20260904020542 80 269 5.0 15.0 0.00 0.00 0.00 32 1014.3
20260904020133 80 248 8.0 15.0 0.00 0.00 0.00 33 1014.2
20260904015540 80 249 7.0 16.0 0.00 0.00 0.00 34 1014.1
20260904015042 80 235 7.0 16.0 0.00 0.00 0.00 33 1014.3
20260904014622 80 247 6.0 11.0 0.00 0.00 0.00 33 1014.2
20260904014043 80 271 5.0 13.0 0.00 0.00 0.00 34 1014.2
20260904013542 79 238 5.0 14.0 0.00 0.00 0.00 35 1014.3
20260904013121 79 256 8.0 14.0 0.00 0.00 0.00 35 1014.2
20260904012544 79 217 5.0 10.0 0.00 0.00 0.00 36 1014.2
20260904012046 78 253 4.0 10.0 0.00 0.00 0.00 37 1014.2
20260904011602 78 249 5.0 10.0 0.00 0.00 0.00 39 1014.2
20260904011043 78 247 3.0 10.0 0.00 0.00 0.00 39 1014.3
20260904010542 77 241 3.0 10.0 0.00 0.00 0.00 40 1014.2
20260904010115 77 250 5.0 10.0 0.00 0.00 0.00 40 1014.2
20260904005541 77 251 3.0 7.0 0.00 0.00 0.00 41 1014.2
20260904005041 76 267 2.0 8.0 0.00 0.00 0.00 43 1014.3
20260904004556 75 236 3.0 8.0 0.00 0.00 0.00 44 1014.2
20260904004041 75 261 2.0 8.0 0.00 0.00 0.00 45 1014.2
20260904003539 74 290 2.0 6.0 0.00 0.00 0.00 45 1014.2
20260904003133 74 260 1.0 5.0 0.00 0.00 0.00 46 1014.2
20260904002544 73 211 2.0 6.0 0.00 0.00 0.00 48 1014.2
20260904002044 72 252 3.0 6.0 0.00 0.00 0.00 48 1014.0
20260904001602 72 236 2.0 6.0 0.00 0.00 0.00 49 1014.1
20260904001040 71 196 2.0 5.0 0.00 0.00 0.00 51 1014.1
20260904000540 70 250 2.0 5.0 0.00 0.00 0.00 52 1014.0
20260904000059 70 233 1.0 4.0 0.00 0.00 0.00 53 1013.9
20260903235543 69 155 2.0 4.0 0.00 0.00 0.00 54 1014.0
20260903235041 69 198 2.0 4.0 0.00 0.00 0.00 55 1013.9
20260903234557 68 249 1.0 4.0 0.00 0.00 0.00 57 1013.9
20260903234040 68 238 1.0 3.0 0.00 0.00 0.00 58 1013.9
20260903233541 67 250 0.0 3.0 0.00 0.00 0.00 59 1013.8
20260903233104 66 0 0.0 3.0 0.00 0.00 0.00 61 1013.9
20260903232541 65 196 0.0 3.0 0.00 0.00 0.00 63 1013.9
20260903232041 64 196 0.0 3.0 0.00 0.00 0.00 64 1013.9
20260903231600 63 0 0.0 2.0 0.00 0.00 0.00 66 1013.9
20260903231039 63 0 0.0 2.0 0.00 0.00 0.00 68 1013.9
20260903230542 62 0 0.0 2.0 0.00 0.00 0.00 70 1013.9
20260903230105 61 0 0.0 3.0 0.00 0.00 0.00 71 1013.9
20260903225544 60 0 0.0 3.0 0.00 0.00 0.00 72 1013.8
20260903225042 60 360 1.0 2.0 0.00 0.00 0.00 72 1013.9
20260903224636 59 0 0.0 2.0 0.00 0.00 0.00 73 1013.9
20260903224040 59 360 1.0 2.0 0.00 0.00 0.00 73 1013.8
20260903223540 59 360 1.0 2.0 0.00 0.00 0.00 73 1013.8
20260903223114 59 360 0.0 2.0 0.00 0.00 0.00 73 1013.7
20260903222539 59 360 0.0 2.0 0.00 0.00 0.00 73 1013.7
20260903222044 59 0 0.0 1.0 0.00 0.00 0.00 73 1013.6
20260903221559 59 0 0.0 0.0 0.00 0.00 0.00 73 1013.5
20260903221042 59 0 0.0 0.0 0.00 0.00 0.00 73 1013.4
20260903220542 59 0 0.0 0.0 0.00 0.00 0.00 73 1013.4
20260903220057 59 0 0.0 0.0 0.00 0.00 0.00 72 1013.3
20260903215546 59 0 0.0 0.0 0.00 0.00 0.00 72 1013.3
20260903215043 59 0 0.0 0.0 0.00 0.00 0.00 72 1013.2
20260903214556 59 0 0.0 1.0 0.00 0.00 0.00 71 1013.2
20260903214039 59 0 0.0 1.0 0.00 0.00 0.00 71 1013.1
20260903213545 60 0 0.0 0.0 0.00 0.00 0.00 71 1013.1
20260903213105 60 0 0.0 2.0 0.00 0.00 0.00 71 1013.0
20260903212542 60 0 0.0 3.0 0.00 0.00 0.00 71 1013.0
20260903212043 60 0 0.0 3.0 0.00 0.00 0.00 70 1012.9
20260903211611 60 0 1.0 3.0 0.00 0.00 0.00 70 1012.8
20260903211039 60 360 0.0 3.0 0.00 0.00 0.00 70 1012.8
20260903210541 60 360 0.0 2.0 0.00 0.00 0.00 70 1012.8
20260903210058 60 0 0.0 2.0 0.00 0.00 0.00 70 1012.7
20260903205540 60 0 0.0 2.0 0.00 0.00 0.00 70 1012.7
20260903205039 61 0 0.0 2.0 0.00 0.00 0.00 69 1012.7
20260903204604 61 0 0.0 3.0 0.00 0.00 0.00 69 1012.6
20260903204041 61 0 0.0 3.0 0.00 0.00 0.00 69 1012.5
20260903203541 61 0 1.0 3.0 0.00 0.00 0.00 69 1012.4
20260903203103 61 360 0.0 3.0 0.00 0.00 0.00 69 1012.4
20260903202543 61 360 0.0 3.0 0.00 0.00 0.00 68 1012.3
20260903202039 61 0 0.0 4.0 0.00 0.00 0.00 68 1012.3
20260903201603 61 360 1.0 4.0 0.00 0.00 0.00 68 1012.4
20260903201039 61 360 1.0 4.0 0.00 0.00 0.00 67 1012.4
20260903200539 62 360 1.0 4.0 0.00 0.00 0.00 67 1012.4
20260903200055 62 360 1.0 4.0 0.00 0.00 0.00 67 1012.4
20260903195538 62 360 1.0 4.0 0.00 0.00 0.00 67 1012.4
20260903195040 61 360 1.0 4.0 0.00 0.00 0.00 67 1012.4
20260903194603 61 360 1.0 3.0 0.00 0.00 0.00 67 1012.5
20260903194043 62 360 1.0 5.0 0.00 0.00 0.00 68 1012.4
20260903193542 62 360 1.0 5.0 0.00 0.00 0.00 67 1012.5
20260903193107 62 0 1.0 5.0 0.00 0.00 0.00 67 1012.5
20260903192538 62 360 1.0 3.0 0.00 0.00 0.00 67 1012.5
20260903192044 62 360 1.0 3.0 0.00 0.00 0.00 66 1012.6
20260903191601 62 360 0.0 3.0 0.00 0.00 0.00 66 1012.7
20260903191043 62 0 1.0 3.0 0.00 0.00 0.00 66 1012.7
20260903190541 62 360 1.0 3.0 0.00 0.00 0.00 66 1012.7
20260903190106 63 360 1.0 3.0 0.00 0.00 0.00 65 1012.8
20260903185542 63 360 1.0 4.0 0.00 0.00 0.00 65 1012.9
20260903185040 63 360 1.0 4.0 0.00 0.00 0.00 65 1012.7
20260903184603 63 360 1.0 4.0 0.00 0.00 0.00 65 1012.8
20260903184041 63 360 1.0 4.0 0.00 0.00 0.00 65 1012.6
20260903183542 63 0 1.0 4.0 0.00 0.00 0.00 66 1012.7
20260903183106 63 360 0.0 3.0 0.00 0.00 0.00 66 1012.7
20260903182544 63 360 1.0 3.0 0.00 0.00 0.00 66 1012.5
20260903182042 63 360 1.0 3.0 0.00 0.00 0.00 67 1012.6
20260903181601 63 360 1.0 3.0 0.00 0.00 0.00 67 1012.5
20260903181045 63 0 0.0 2.0 0.00 0.00 0.00 67 1012.6
20260903180543 63 0 0.0 3.0 0.00 0.00 0.00 68 1012.6
20260903180104 64 360 0.0 3.0 0.00 0.00 0.00 68 1012.6
20260903175541 64 360 0.0 3.0 0.00 0.00 0.00 68 1012.8
20260903175042 64 0 0.0 2.0 0.00 0.00 0.00 68 1012.7
20260903174608 64 360 0.0 2.0 0.00 0.00 0.00 68 1012.8
20260903174041 64 0 0.0 2.0 0.00 0.00 0.00 69 1013.0
20260903173542 64 0 0.0 2.0 0.00 0.00 0.00 69 1013.2
20260903173105 64 0 0.0 1.0 0.00 0.00 0.00 69 1013.4
20260903172542 64 0 0.0 1.0 0.00 0.00 0.00 68 1013.2
20260903172042 64 0 0.0 1.0 0.00 0.00 0.00 69 1013.2
20260903171605 64 0 0.0 2.0 0.00 0.00 0.00 69 1013.3
20260903171042 65 0 0.0 2.0 0.00 0.00 0.00 68 1013.4
20260903170541 65 0 0.0 2.0 0.00 0.00 0.00 68 1013.5
20260903165543 65 0 0.0 0.0 0.00 0.00 0.00 68 1013.4
20260903165042 65 0 0.0 0.0 0.00 0.00 0.00 67 1013.7
20260903164607 65 0 0.0 0.0 0.00 0.00 0.00 67 1013.7
20260903164042 65 0 0.0 0.0 0.00 0.00 0.00 67 1013.7
20260903163541 65 0 0.0 0.0 0.00 0.00 0.00 67 1013.6
20260903163059 65 0 0.0 0.0 0.00 0.00 0.00 67 1013.8
20260903162652 65 0 0.0 0.0 0.00 0.00 0.00 66 1014.1
20260903162042 65 0 0.0 0.0 0.00 0.00 0.00 66 1013.9
20260903161602 65 0 0.0 0.0 0.00 0.00 0.00 65 1013.9
20260903161045 65 0 0.0 1.0 0.00 0.00 0.00 65 1013.9
20260903160541 65 0 0.0 1.0 0.00 0.00 0.00 64 1014.1
20260903160106 64 0 0.0 1.0 0.00 0.00 0.00 64 1014.1
20260903155540 64 360 0.0 0.0 0.00 0.00 0.00 65 1014.0
20260903155042 64 0 0.0 1.0 0.00 0.00 0.00 64 1014.1
20260903154601 65 0 0.0 1.0 0.00 0.00 0.00 64 1014.1
20260903154043 64 0 0.0 1.0 0.00 0.00 0.00 64 1013.9
20260903153542 64 360 0.0 1.0 0.00 0.00 0.00 65 1013.9
20260903153108 64 0 0.0 1.0 0.00 0.00 0.00 64 1014.2
20260903152540 64 0 0.0 1.0 0.00 0.00 0.00 65 1014.3
20260903152047 64 0 0.0 0.0 0.00 0.00 0.00 66 1014.3
20260903151601 64 0 0.0 0.0 0.00 0.00 0.00 65 1014.5
20260903151042 64 0 0.0 0.0 0.00 0.00 0.00 65 1014.6
20260903150542 65 0 0.0 0.0 0.00 0.00 0.00 64 1014.7
20260903150100 65 0 0.0 1.0 0.00 0.00 0.00 63 1014.7
20260903145542 65 0 0.0 1.0 0.00 0.00 0.00 63 1014.9
20260903145039 65 0 0.0 1.0 0.00 0.00 0.00 63 1014.9
20260903144603 65 0 0.0 0.0 0.00 0.00 0.00 62 1014.9
20260903144042 66 0 0.0 0.0 0.00 0.00 0.00 62 1014.8
20260903143545 66 0 0.0 1.0 0.00 0.00 0.00 62 1014.8
20260903143106 66 0 0.0 1.0 0.00 0.00 0.00 60 1014.9
20260903142540 66 0 0.0 2.0 0.00 0.00 0.00 60 1015.1
20260903142148 66 0 0.0 2.0 0.00 0.00 0.00 60 1015.3
20260903141557 67 0 0.0 2.0 0.00 0.00 0.00 59 1015.4
20260903141045 67 360 0.0 1.0 0.00 0.00 0.00 58 1015.3
20260903140544 67 0 0.0 1.0 0.00 0.00 0.00 58 1015.1
20260903140105 67 0 0.0 1.0 0.00 0.00 0.00 58 1015.1
20260903135543 68 0 0.0 0.0 0.00 0.00 0.00 57 1015.1
20260903135042 68 0 0.0 0.0 0.00 0.00 0.00 56 1015.3
20260903134609 68 0 0.0 0.0 0.00 0.00 0.00 55 1015.3
20260903134043 69 0 0.0 2.0 0.00 0.00 0.00 54 1015.3
20260903133542 69 0 0.0 2.0 0.00 0.00 0.00 54 1015.2
20260903133112 69 0 0.0 2.0 0.00 0.00 0.00 54 1015.1
20260903132546 69 0 0.0 3.0 0.00 0.00 0.00 53 1015.4
20260903132043 70 360 0.0 3.0 0.00 0.00 0.00 53 1015.2
20260903131557 70 0 0.0 3.0 0.00 0.00 0.00 52 1015.0
20260903131046 70 360 1.0 3.0 0.00 0.00 0.00 52 1015.1
20260903130544 71 360 1.0 3.0 0.00 0.00 0.00 51 1015.1
20260903130129 71 360 1.0 5.0 0.00 0.00 0.00 50 1015.0
20260903125546 71 360 1.0 5.0 0.00 0.00 0.00 50 1014.9
20260903125044 71 360 2.0 5.0 0.00 0.00 0.00 49 1015.2
20260903124611 72 360 1.0 3.0 0.00 0.00 0.00 49 1015.4
20260903124043 72 360 1.0 4.0 0.00 0.00 0.00 49 1015.3
20260903123542 72 360 1.0 6.0 0.00 0.00 0.00 49 1015.5
20260903123100 72 360 1.0 6.0 0.00 0.00 0.00 50 1015.7
20260903122542 72 360 2.0 6.0 0.00 0.00 0.00 50 1015.5
20260903122044 72 360 2.0 5.0 0.00 0.00 0.00 50 1015.1
20260903121602 72 360 2.0 5.0 0.00 0.00 0.00 50 1015.1
20260903121042 72 360 1.0 5.0 0.00 0.00 0.00 50 1015.1
20260903120544 72 360 2.0 5.0 0.00 0.00 0.00 49 1015.3
20260903120106 72 360 1.0 5.0 0.00 0.00 0.00 49 1015.1
20260903115544 72 360 2.0 5.0 0.00 0.00 0.00 49 1015.2
20260903115042 73 360 1.0 5.0 0.00 0.00 0.00 48 1015.2
20260903114600 73 360 1.0 5.0 0.00 0.00 0.00 49 1015.4
20260903114042 73 360 2.0 5.0 0.00 0.00 0.00 48 1015.5
20260903113543 73 360 1.0 5.0 0.00 0.00 0.00 48 1015.2
20260903113102 73 360 1.0 6.0 0.00 0.00 0.00 47 1015.4
20260903112542 73 360 2.0 8.0 0.00 0.00 0.00 47 1015.0
20260903112042 74 360 2.0 8.0 0.00 0.00 0.00 46 1015.0
20260903111604 74 360 2.0 5.0 0.00 0.00 0.00 46 1015.0
20260903111043 74 360 2.0 6.0 0.00 0.00 0.00 46 1015.0
20260903110545 74 360 2.0 10.0 0.00 0.00 0.00 46 1015.0
20260903110101 74 360 3.0 10.0 0.00 0.00 0.00 46 1015.1
20260903105543 74 360 3.0 9.0 0.00 0.00 0.00 45 1015.1
20260903105040 74 360 1.0 4.0 0.00 0.00 0.00 45 1015.0
20260903104603 74 360 2.0 4.0 0.00 0.00 0.00 45 1015.0
20260903104039 74 360 1.0 4.0 0.00 0.00 0.00 45 1014.9
20260903103540 75 0 2.0 4.0 0.00 0.00 0.00 45 1014.7
20260903103057 75 360 0.0 4.0 0.00 0.00 0.00 45 1014.5
20260903102539 75 0 1.0 4.0 0.00 0.00 0.00 46 1014.5
20260903102039 75 360 1.0 3.0 0.00 0.00 0.00 46 1014.5
20260903101605 75 0 1.0 3.0 0.00 0.00 0.00 46 1014.5
20260903101040 75 360 0.0 2.0 0.00 0.00 0.00 45 1014.4
20260903100542 75 360 0.0 2.0 0.00 0.00 0.00 45 1014.3
20260903095542 75 0 0.0 3.0 0.00 0.00 0.00 45 1014.4
20260903095042 76 360 0.0 3.0 0.00 0.00 0.00 45 1014.4
20260903094612 76 360 0.0 4.0 0.00 0.00 0.00 44 1014.4
20260903094042 76 192 1.0 4.0 0.00 0.00 0.00 44 1014.4
20260903093543 76 164 0.0 2.0 0.00 0.00 0.00 42 1014.3
20260903093107 76 202 0.0 2.0 0.00 0.00 0.00 42 1014.3
20260903092540 77 0 0.0 2.0 0.00 0.00 0.00 42 1014.3
20260903092040 77 0 0.0 2.0 0.00 0.00 0.00 41 1014.3
20260903091603 77 0 0.0 1.0 0.00 0.00 0.00 40 1014.3
20260903091043 78 0 0.0 2.0 0.00 0.00 0.00 40 1014.2
20260903090540 78 0 0.0 2.0 0.00 0.00 0.00 40 1014.1
20260903090106 78 0 0.0 2.0 0.00 0.00 0.00 39 1014.1
20260903085541 78 0 0.0 2.0 0.00 0.00 0.00 38 1014.0
20260903085042 79 0 0.0 2.0 0.00 0.00 0.00 38 1014.1
20260903084601 79 0 0.0 3.0 0.00 0.00 0.00 37 1014.2
20260903084039 79 260 0.0 3.0 0.00 0.00 0.00 36 1014.2
20260903083543 79 0 0.0 3.0 0.00 0.00 0.00 36 1014.2
20260903083110 79 0 0.0 3.0 0.00 0.00 0.00 37 1014.2
20260903082539 79 209 1.0 4.0 0.00 0.00 0.00 36 1014.2
20260903082040 79 202 1.0 4.0 0.00 0.00 0.00 37 1014.3
20260903081558 79 0 0.0 4.0 0.00 0.00 0.00 37 1014.2
20260903081038 79 167 1.0 3.0 0.00 0.00 0.00 36 1014.1
20260903080543 79 186 1.0 5.0 0.00 0.00 0.00 36 1014.1
20260903080104 79 186 1.0 5.0 0.00 0.00 0.00 37 1014.1
20260903075543 80 248 1.0 5.0 0.00 0.00 0.00 36 1014.0
20260903075042 80 272 1.0 4.0 0.00 0.00 0.00 37 1014.1
20260903074610 80 180 1.0 4.0 0.00 0.00 0.00 37 1014.2
20260903074041 80 188 1.0 4.0 0.00 0.00 0.00 37 1014.3
20260903073543 80 0 0.0 4.0 0.00 0.00 0.00 36 1014.3
20260903073135 80 251 1.0 7.0 0.00 0.00 0.00 36 1014.6
20260903072540 80 240 3.0 7.0 0.00 0.00 0.00 36 1014.8
20260903072039 80 265 3.0 6.0 0.00 0.00 0.00 36 1014.7
20260903071621 80 249 3.0 8.0 0.00 0.00 0.00 36 1014.7
20260903071043 80 360 2.0 8.0 0.00 0.00 0.00 36 1014.7
20260903070543 80 360 2.0 5.0 0.00 0.00 0.00 36 1014.7
20260903070103 80 360 1.0 6.0 0.00 0.00 0.00 36 1014.6
20260903065540 80 360 2.0 9.0 0.00 0.00 0.00 36 1014.7
20260903065043 81 360 2.0 9.0 0.00 0.00 0.00 35 1014.6
20260903064600 81 360 3.0 6.0 0.00 0.00 0.00 35 1014.7
20260903064042 81 0 0.0 8.0 0.00 0.00 0.00 35 1014.7
20260903063542 81 360 1.0 9.0 0.00 0.00 0.00 35 1014.7
20260903063104 81 360 3.0 9.0 0.00 0.00 0.00 34 1014.7
20260903062543 82 360 2.0 5.0 0.00 0.00 0.00 34 1014.8
20260903062044 82 0 1.0 9.0 0.00 0.00 0.00 35 1014.8
20260903061601 82 360 4.0 9.0 0.00 0.00 0.00 35 1014.9
20260903061042 82 360 3.0 8.0 0.00 0.00 0.00 34 1015.2
20260903060540 83 360 1.0 6.0 0.00 0.00 0.00 34 1015.2
20260903060154 83 360 1.0 6.0 0.00 0.00 0.00 34 1015.0
20260903055542 82 360 2.0 6.0 0.00 0.00 0.00 34 1015.1
20260903055039 82 0 2.0 8.0 0.00 0.00 0.00 34 1015.2
20260903054607 82 360 4.0 8.0 0.00 0.00 0.00 34 1015.2